Flag for Hungary Weather past 2 weeks in Debrecen, Hungary

Now
63 °F

Overcast.


Feels Like: 63 °F
Forecast: 41 / 68 °F
Wind: 9 mph from Northeast

Location: Debrecen


UV Index: 3 (Moderate)

Visibility: 25 mi


Pressure: 29.91 "Hg

Humidity: 44%

Dew point: 41 °F

Location of DebrecenLocation

Historic Weather in Debrecen

°F

Debrecen temperature yesterday

Maximum temperature yesterday: 67 °F (at 5:00 PM)
Minimum temperature yesterday: 45 °F (at 6:00 AM)
Average temperature yesterday: 54 °F

Past Weeks' High & Low Weather Summary

 TemperatureHumidityPressure
High70 °F (Apr 8, 4:00 PM)99% (Apr 7, 7:00 AM)30.13 "Hg (Apr 7, 7:00 AM)
Low33 °F (Apr 10, 7:00 AM)33% (Apr 2, 6:00 PM)29.74 "Hg (Apr 14, 10:00 PM)
Average52 °F72%29.96 "Hg
* Reported Apr 2 6:00 PM — Apr 17 6:00 PM, Debrecen, Weather by CustomWeather, © 2014

Note: Actual official high and low records may vary slightly from our data, if they occured in-between our weather recording intervals... More about our weather records

Advertising

Historic Weather Conditions — Data for Previous 24 hours

 ConditionsComfort  
Time TempWeatherWind HumidityBarometerVisibility
6:00 PM
Apr 17
63 °FOvercast.9 mph44%29.91 "Hg25 mi
5:00 PM67 °FPartly sunny.8 mph39%29.91 "Hg25 mi
4:00 PM66 °FPartly sunny.7 mph42%29.93 "Hg25 mi
3:00 PM66 °FOvercast.8 mph40%29.94 "Hg25 mi
2:00 PM63 °FOvercast.10 mph43%29.95 "Hg25 mi
1:00 PM61 °FOvercast.9 mph46%29.97 "Hg25 mi
12:00 PM58 °FPartly sunny.10 mph50%29.98 "Hg19 mi
11:00 AM57 °FScattered clouds.12 mph56%30.00 "Hg19 mi
10:00 AM53 °FPartly sunny.10 mph58%30.01 "Hg19 mi
9:00 AM49 °FOvercast.10 mph66%30.02 "Hg19 mi
8:00 AM47 °FOvercast.10 mph70%30.01 "Hg16 mi
7:00 AM45 °FOvercast.10 mph71%30.01 "Hg16 mi
6:00 AM45 °FOvercast.9 mph71%30.01 "Hg16 mi
5:00 AM46 °FOvercast.9 mph70%30.01 "Hg16 mi
4:00 AM46 °FCool.10 mph70%30.01 "HgN/A
3:00 AM46 °FCool.10 mph73%30.03 "HgN/A
2:00 AM47 °FCool.9 mph72%30.04 "HgN/A
1:00 AM47 °FCool.12 mph69%30.05 "HgN/A
Weather by CustomWeather, © 2014

See weather overview